TimeEDT,TemperatureF,Dew PointF,Humidity,Sea Level PressureIn,VisibilityMPH,Wind Direction,Wind SpeedMPH,Gust SpeedMPH,PrecipitationIn,Events,Conditions,WindDirDegrees,DateUTC
12:53 AM,68.0,55.9,65,29.78,10.0,North,8.1,-,N/A,,Clear,360,2012-10-27 04:53:00
1:53 AM,66.9,57.0,70,29.75,10.0,North,8.1,-,N/A,,Clear,350,2012-10-27 05:53:00
2:53 AM,66.0,57.0,73,29.73,10.0,North,9.2,-,N/A,,Clear,350,2012-10-27 06:53:00
3:53 AM,64.9,57.0,75,29.71,10.0,NNW,8.1,-,N/A,,Clear,340,2012-10-27 07:53:00
4:53 AM,64.0,57.0,78,29.70,10.0,NNW,11.5,18.4,N/A,,Clear,340,2012-10-27 08:53:00
5:53 AM,64.0,57.9,80,29.71,9.0,North,10.4,-,N/A,,Clear,350,2012-10-27 09:53:00
6:53 AM,64.0,57.9,80,29.71,9.0,NNW,8.1,-,N/A,,Scattered Clouds,330,2012-10-27 10:53:00
7:53 AM,63.0,57.9,84,29.72,7.0,North,8.1,-,N/A,,Clear,350,2012-10-27 11:53:00
8:10 AM,62.6,57.2,82,29.73,7.0,North,9.2,-,N/A,,Mostly Cloudy,350,2012-10-27 12:10:00
8:53 AM,64.0,59.0,84,29.74,7.0,North,12.7,17.3,N/A,,Overcast,360,2012-10-27 12:53:00
9:53 AM,66.0,59.0,78,29.75,8.0,NNW,11.5,17.3,N/A,,Overcast,340,2012-10-27 13:53:00
10:53 AM,68.0,60.1,76,29.74,9.0,NNW,11.5,20.7,N/A,,Overcast,340,2012-10-27 14:53:00
11:53 AM,70.0,60.1,71,29.74,9.0,North,8.1,20.7,N/A,,Overcast,350,2012-10-27 15:53:00
12:29 PM,71.6,60.8,69,29.73,10.0,North,11.5,18.4,N/A,,Scattered Clouds,350,2012-10-27 16:29:00
12:53 PM,73.0,60.1,64,29.71,10.0,NNW,11.5,19.6,N/A,,Clear,330,2012-10-27 16:53:00
1:53 PM,73.9,60.1,62,29.68,10.0,NNW,12.7,-,N/A,,Clear,340,2012-10-27 17:53:00
2:53 PM,75.9,59.0,56,29.67,10.0,NNW,17.3,-,N/A,,Partly Cloudy,330,2012-10-27 18:53:00
3:53 PM,77.0,57.9,52,29.65,10.0,NNW,12.7,23.0,N/A,,Partly Cloudy,330,2012-10-27 19:53:00
4:53 PM,77.0,57.9,52,29.64,10.0,NNW,13.8,18.4,N/A,,Clear,330,2012-10-27 20:53:00
5:53 PM,75.0,57.9,55,29.64,10.0,NNW,9.2,-,N/A,,Clear,330,2012-10-27 21:53:00
6:53 PM,73.0,57.0,57,29.65,10.0,NW,4.6,-,N/A,,Clear,320,2012-10-27 22:53:00
7:53 PM,69.1,59.0,70,29.68,9.0,Calm,Calm,-,N/A,,Clear,0,2012-10-27 23:53:00
8:53 PM,70.0,57.9,65,29.68,10.0,NNW,6.9,-,N/A,,Scattered Clouds,330,2012-10-28 00:53:00
9:53 PM,70.0,57.9,65,29.69,10.0,NW,6.9,-,N/A,,Clear,310,2012-10-28 01:53:00
10:53 PM,69.1,57.0,65,29.71,10.0,NW,10.4,-,N/A,,Clear,310,2012-10-28 02:53:00